星链-34873 (STARLINK-34873)

导读

STARLINK-34873是美国太空探索技术公司星链计划的卫星,于2025年8月27日发射,属于低轨通信卫星。星链计划旨在构建全球卫星互联网星座,该卫星入轨后,将与其他星链卫星协同,为全球偏远地区、海洋、天空等场景提供高速低延迟的互联网接入服务,拓展全球网络覆盖范围。

Basic Information
目录编号:
65346
目录名称:
STARLINK-34873
国际标识:
2025-189Z
轨道中心:
EARTH
卫星名称:
星链-34873
卫星全名:
星链-34873 (STARLINK-34873)
卫星状态:
在轨 (已飞行380 天)
发射日期:
2025-08-27 UTC
国别 :
美国 (US)
星等 :
--
This satellite is enrolled in the Space Conjunction Data Service (SCDS) and the current flight risk assessment level is: No High Risk
Orbit Information
数据来源 国际轨道数据 AOE轨道数据
星历时间 2026-09-11T02:21:14+0800
19小时前
查看轨道信息
2026-09-05T12:00:00+0800
6天前
查看轨道信息
半长轴 6840.894km 6840.873km
偏心率 0.0001015 0.0001605
轨道倾角 53.159° 53.158°
近地点辐角 91.998° 63.782°
升交点赤经 64.883° 91.053°
平近点角 268.114° 316.329°
近地点 462.062km 461.638km
远地点 463.452km 463.834km
周期 93.849分钟 93.848分钟
每日圈数 15.34382 15.34389
Detailed Information
固有亮度:
5
最大亮度:
2.5
卫星平台:
Starlink V1.0
覆盖范围:
全球
运营商:
太空探索技术公司
运营商所在国:
美国
制造商(研发单位):
太空探索技术公司
制造商所在国:
美国
使用方式:
暂无
Satellite Introduction
Starlink 计划是 SpaceX 推出的全球卫星互联网项目,通过发射低轨道卫星,为全球尤其是偏远地区提供高速、低延迟的互联网服务。自 2019 年起,Starlink 已部署数千颗卫星,旨在缩小全球数字鸿沟,推动互联网普及。该项目还为军事、航空等行业提供通信支持,带来广泛经济效益。
2D Orbit Map
3D Orbit Map
Orbit Altitude Analysis Chart
Orbit Inclination Analysis Chart
Orbit Comprehensive Analysis Chart
View Comprehensive Chart
Conjunction Data List
Event ID Objects TCA Miss Dist (km) Collision Risk Probability Collision Risk Index (CRI) Action
CDM_260903-220505-389306-534621
2026-09-03T
22:05:18+0000
2.408 km
极远距离
1.630961E-6 低风险 0.39
CDM_260905-122804-315906-534623
2026-09-05T
12:28:59+0000
2.982 km
极远距离
1.346935E-6 低风险 0.38
CDM_260909-174205-314006-534623
2026-09-09T
17:42:50+0000
2.834 km
极远距离
4.277507E-7 极低风险 0.28
Miss Distance Evolution Trend with All Objects
Collision Probability Evolution Trend with All Objects